Location: Palomar Mountain Lodge
(33.3110°N, 116.8495°W)
Time: 11:32:44
(UTC-07:00)

Daily predictions for brighter satellites

Satellite Brightness Start Highest point End
(mag) Time Altitude Azimuth Time Altitude Azimuth Time Altitude Azimuth
CORIOLIS 4.2 18:27:33 10° SSE 18:32:54 85° ENE 18:38:19 10° NNW
Meteor 1-16 Rocket 4.1 18:27:40 10° S 18:32:57 89° WNW 18:38:17 10° N
SL-8 Rocket 4.1 18:29:33 10° S 18:35:42 88° W 18:41:56 10° N
Cosmos 1624 Rocket 4.1 18:31:03 10° N 18:36:10 57° ENE 18:41:18 10° SSE
Atlas Centaur 2 2.1 18:33:18 10° WSW 18:37:46 63° S 18:43:30 10° E
ISS -3.8 18:35:16 10° NW 18:38:32 89° NE 18:41:48 10° SE
MTI 4.1 18:35:39 10° N 18:38:51 69° WNW 18:41:59 10° SSW
Cosmos 1371 Rocket 4.0 18:33:29 10° NNW 18:38:52 76° ENE 18:44:11 10° SSE
COSMO-SKYMED 1 2.6 18:36:48 10° NNE 18:41:08 64° ESE 18:45:24 10° S
Thor Agena Rocket 4.4 18:39:33 10° NE 18:43:44 26° E 18:47:52 10° SSE
Cosmos 1703 4.0 18:40:44 10° NNE 18:44:14 30° E 18:47:41 10° SE
ASTRO E2 3.0 18:41:25 10° WSW 18:45:21 60° S 18:49:06 11° E
ERS-2 2.5 18:42:10 10° S 18:45:49 69° WSW 18:49:30 10° NNW
NOSS 3 (A) 4.3 18:43:40 10° SSW 18:46:23 88° WNW 18:49:15 10° NNE
Cosmos 1408 Rocket 4.0 18:43:34 10° NNW 18:48:00 70° W 18:52:25 10° S
Milstar 3 Cent rocket 4.3 18:36:38 10° W 18:48:06 42° SSW 18:54:08 10° SE
APEX 4.2 18:48:19 10° SSE 18:51:02 20° ESE 18:53:00 12° ENE
CZ-4 R/B 2.3 18:46:55 10° S 18:51:03 55° W 18:55:10 10° NNW
Cosmos 1400 Rocket 2.8 18:53:23 10° N 18:57:21 57° E 19:01:15 10° SSE
MOS 1 4.2 18:51:46 10° SSE 18:57:24 76° ENE 19:03:04 10° N
Cosmos 2218 Rocket 4.3 18:51:48 10° SSW 18:57:54 70° W 19:04:02 10° N
Cosmos 1908 3.7 18:55:24 10° SSE 18:59:03 39° E 19:02:43 10° NNE
SL-8 R/B 4.4 18:54:28 10° WSW 18:59:09 51° NW 19:03:52 10° NE
YAOGAN 1 3.1 18:57:05 10° S 19:01:20 64° W 19:05:38 10° NNW
Cosmos 158 Rocket 4.3 18:58:00 10° S 19:02:37 40° ESE 19:07:23 10° NNE
Cosmos 1726 3.5 19:00:54 10° SE 19:03:31 18° E 19:04:04 18° ENE
SL-16 R/B 2.6 19:01:36 10° NNW 19:07:13 66° WSW 19:12:49 10° S
BREEZE-M DEB (TANK) 1.9 19:05:34 10° NNW 19:07:22 29° NE 19:07:47 27° ENE
H-2A R/B 4.0 19:06:24 18° E 19:07:34 21° ENE 19:10:32 10° NNE
GENESIS II 4.3 19:03:42 10° SSW 19:07:38 79° WNW 19:11:38 10° NNE
Tiangong 1 1.1 19:06:44 10° WNW 19:09:24 58° SSW 19:11:04 19° SE
Cosmos 1727 Rocket 4.0 19:07:16 10° N 19:13:39 85° E 19:19:58 10° S
SPOT 3 Rocket 3.5 19:09:06 10° SSE 19:14:16 89° W 19:19:30 10° NNW
BREEZE-M R/B 3.8 19:12:40 10° S 19:13:56 17° SE 19:13:56 17° SE
Cosmos 1339 Rocket 4.5 19:08:18 10° N 19:14:39 89° E 19:20:52 10° S
GP-B 3.9 19:11:08 10° N 19:15:29 55° W 19:19:48 10° SSW
ATLAS 3B CENTAUR R/B 4.3 19:11:51 10° WSW 19:15:46 23° S 19:23:17 10° SE
GRACE-2 3.6 19:13:56 10° S 19:16:30 81° W 19:19:04 10° N
Cosmos 1269 Rocket 4.3 19:13:43 10° S 19:18:37 41° ESE 19:23:33 10° NNE
GRACE-1 3.9 19:16:15 10° S 19:18:48 69° W 19:21:22 10° N
Cosmos 2056 Rocket 4.4 19:18:41 10° NNW 19:23:46 51° WSW 19:28:47 10° S
ALOS 2.1 19:19:32 10° SSE 19:24:11 81° ENE 19:28:51 10° N
CZ-4C R/B 2.1 19:22:56 10° S 19:27:46 51° ESE 19:31:34 19° NE
Abrixas 4.0 19:26:05 10° SSW 19:26:51 17° S 19:26:51 17° S
Cosmos 468 4.5 19:23:50 10° SSW 19:29:02 88° WNW 19:34:16 10° NNE
Cosmos 2098 Rocket 3.1 19:25:21 10° SSE 19:29:07 51° E 19:33:56 10° NNE
Cosmos 2151 3.4 19:25:11 10° NNW 19:29:25 65° W 19:33:35 10° S
OAO 1 Rocket 4.4 19:30:03 10° WSW 19:35:21 89° SSE 19:37:36 35° ENE
NOAA 12 4.3 19:30:13 10° S 19:35:28 75° WSW 19:40:47 10° NNW
Cosmos 1626 4.1 19:34:01 10° NNW 19:37:21 32° W 19:40:41 10° SSW
Delta 2 Rocket 3.0 19:35:57 10° W 19:39:31 59° N 19:39:54 54° NNE
Cosmos 1315 Rocket 2.8 19:35:36 10° N 19:39:40 85° W 19:43:46 10° S
Cosmos 1452 Rocket 3.4 19:36:26 10° NNW 19:41:42 86° ENE 19:46:57 10° SSE
SL-24 R/B - RUBIN 2 3.5 19:39:05 10° NNW 19:43:46 64° ENE 19:44:46 49° ESE
FALCON 9 R/B 3.2 19:41:41 10° WSW 19:43:50 19° SSW 19:45:53 15° SSE
Cosmos 2221 2.9 19:40:59 10° SSW 19:45:12 62° W 19:49:31 10° N
USA 267 3.2 19:40:29 16° NE 19:45:56 87° SE 19:52:28 10° SW
COSMOS 2428 3.0 19:41:28 10° N 19:46:50 42° ENE 19:47:22 41° E
CZ-3 Stage 3 2.9 19:48:11 10° WSW 19:48:38 15° WSW 19:48:38 15° WSW
Cosmos 2360 Rocket 2.3 19:44:21 10° NNW 19:49:59 75° WSW 19:55:37 10° SSE
Cosmos 2333 Rocket 3.7 19:45:42 10° N 19:48:29 20° NE 19:48:29 20° NE
Cosmos 2219 3.1 19:46:52 10° SSW 19:52:36 85° ESE 19:58:22 10° NNE
FengYun 1-2 T 4.1 19:49:52 10° SSE 19:55:22 84° ENE 20:00:53 10° NNW
DELTA 2 R/B (1) 3.8 19:51:45 10° WNW 19:57:13 54° NNE 19:58:14 47° NE
RESURS DK-1 2.7 19:53:35 10° NNW 19:57:41 64° WSW 19:59:02 39° S
Cosmos 921 Rocket 3.4 19:55:19 10° NNW 19:59:42 63° WSW 20:02:30 21° S
SJ-6B 4.2 20:01:41 26° N 20:01:41 26° N 20:03:26 10° N
Cosmos 44 3.7 19:57:52 10° SW 20:02:10 53° WNW 20:03:57 31° N
MOS 1-B Rocket 4.0 20:12:52 53° NE 20:12:52 53° NE 20:17:45 10° N
Cosmos 44 Rocket 4.4 20:13:11 10° SW 20:17:37 40° WNW 20:19:34 27° N
Cosmos 2322 4.4 20:12:37 10° NNW 20:18:09 53° WSW 20:22:17 18° S
ASTRO E2 4.5 20:21:51 10° W 20:24:01 30° WSW 20:24:01 30° WSW
Atlas Centaur 2 2.6 20:21:32 10° W 20:26:34 54° SSW 20:26:34 54° SSW
Cosmos 2219 Rocket 3.4 20:34:22 10° NNW 20:37:19 32° N 20:37:19 32° N
CZ-4C R/B 4.3 21:12:48 10° W 21:16:39 20° NW 21:16:52 20° NW
